This demonstration page uses our WeatherBlox Daily Observations layout. Learn more.

Left ArrowRight Arrow

36.19886, -115.1175

Hourly Observations for April 22, 2021

Temp ( °F °C ) Dew Point ( °F °C ) Humidity (%) Winds ( mph kmh ) Pressure ( in mb ) Visibility ( mi km ) Precip ( " mm )
12:53 am 00:53 Clear 67 19.4 33 0.6 28 28 NW 13 20 29.65 1004 10 16 N/A
1:53 am 01:53 Clear 66 18.9 32 undefined 28 28 WNW 15 24 29.65 1004 10 16 N/A
2:53 am 02:53 Clear 63 17.2 33 0.6 33 33 WNW 10 17 29.66 1004 10 16 N/A
3:53 am 03:53 Clear 62 16.7 33 0.6 34 34 NNW 9 15 29.67 1005 10 16 N/A
4:53 am 04:53 Clear 62 16.7 33 0.6 34 34 NNW 16 26 29.67 1005 10 16 N/A
5:53 am 05:53 Clear 61 16.1 34 1.1 36 36 NW 13 20 29.70 1006 10 16 N/A
6:53 am 06:53 Sunny 62 16.7 34 1.1 35 35 NNW 13 20 29.73 1007 10 16 N/A
7:53 am 07:53 Sunny 65 18.3 34 1.1 32 32 N 10 17 29.75 1007 10 16 N/A
8:53 am 08:53 Sunny 69 20.6 33 0.6 26 26 N 14 22 29.75 1008 10 16 N/A
9:53 am 09:53 Sunny 72 22.2 30 -1.1 21 21 NNW 13 20 29.76 1008 10 16 N/A
10:53 am 10:53 Sunny 75 23.9 28 -2.2 18 18 NNW 14 22 29.75 1008 10 16 N/A
11:53 am 11:53 Sunny 76 24.4 26 -3.3 16 16 N 10 17 29.72 1007 10 16 N/A
12:53 pm 12:53 Sunny 78 25.6 17 -8.3 10 10 N 10 17 29.70 1006 10 16 N/A
1:53 pm 13:53 Sunny 80 26.7 14 -10 8 8 NNW 10 17 29.68 1005 10 16 N/A
2:53 pm 14:53 Sunny 80 26.7 15 -9.4 8 8 W 12 19 29.66 1004 10 16 N/A
3:53 pm 15:53 Sunny 81 27.2 12 -11.1 7 7 W 6 9 29.63 1004 10 16 N/A
4:53 pm 16:53 Sunny 83 28.3 12 -11.1 7 7 NNW 14 22 29.62 1003 10 16 N/A
5:53 pm 17:53 Sunny 81 27.2 13 -10.6 7 7 NNW 9 15 29.61 1003 10 16 N/A
6:53 pm 18:53 Sunny 79 26.1 14 -10 8 8 SSW 13 20 29.60 1002 10 16 N/A
7:53 pm 19:53 Clear 77 25 15 -9.4 9 9 SSW 8 13 29.62 1003 10 16 N/A
8:53 pm 20:53 Clear 75 23.9 9 -12.8 8 8 WSW 8 13 29.63 1004 10 16 N/A
9:53 pm 21:53 Clear 73 22.8 12 -11.1 9 9 NNW 6 9 29.65 1004 10 16 N/A
10:53 pm 22:53 Clear 69 20.6 10 -12.2 10 10 W 6 9 29.66 1004 10 16 N/A
11:53 pm 23:53 Clear 70 21.1 8 -13.3 9 9 NNW 6 9 29.67 1005 10 16 N/A

Powered by AerisWeather